Weather History for Bangor, ME

Change the Weather History Date:

Tuesday, August 23, 2011

  Actual Average Record
Temperature  
Mean Temperature 62 °F 66 °F  
Max Temperature 72 °F 77 °F 92 °F (1933)
Min Temperature 51 °F 55 °F 37 °F (1940)
Degree Days  
Heating Degree Days 3 2  
Month to date heating degree days 8 25  
Since 1 June heating degree days 126 155  
Since 1 July heating degree days 12 48  
Cooling Degree Days 0 3  
Month to date cooling degree days 71 83  
Year to date cooling degree days 293 273  
Since 1 June cooling degree days 285 267  
Growing Degree Days 12 (Base 50)    
Moisture  
Dew Point 49 °F    
Average Humidity 67    
Maximum Humidity 93    
Minimum Humidity 41    
Precipitation  
Precipitation 0.00 in 0.09 in 1.13 in (1964)
Month to date precipitation 6.19 2.27  
Year to date precipitation 28.20 25.54  
Snow  
Snow 0.00 in 0.00 in 0.00 in (2002)
Month to date snowfall 0.0 0.0  
Since 1 June snowfall 0.0 0.0  
Since 1 July snowfall 0.0 0.0  
Snow Depth 0.00 in    
Sea Level Pressure  
Sea Level Pressure 29.91 in    
Wind  
Wind Speed 5 mph (West)    
Max Wind Speed 15 mph    
Max Gust Speed 23 mph    
Visibility 10 miles    
Events      
T = Trace of Precipitation, MM = Missing Value Source: NWS Daily Summary

Daily Weather History Graph

Daily Weather History Graph

Search for Another Location

Airport:

Trip Planner

Search our weather history database for the weather conditions in past years. The results will help you decide how hot, cold, wet, or windy it might be!

Date:

Astronomy

Aug. 23, 2011 Rise Set
Actual Time 5:46 AM EDT 7:28 PM EDT
Civil Twilight 5:15 AM EDT 7:59 PM EDT
Nautical Twilight 4:37 AM EDT 8:37 PM EDT
Astronomical Twilight 3:56 AM EDT 9:17 PM EDT
Moon No Moon Rise 3:33 PM EDT (8/23)
Length of Visible Light 14h 43m
Length of Day
13h 42m
Waning Crescent, 33% of the Moon is Illuminated
Aug 23
Waning Crescent
Aug 28
New
Sep 4
First Quarter
Sep 12
Full
Sep 20
Last Quarter

Hourly Weather History & Observations

Time (EDT) Temp. Dew Point Humidity Pressure Visibility Wind Dir Wind Speed Gust Speed Precip Events Conditions
12:53 AM 55.4 °F 51.8 °F 88% 29.82 in 10.0 mi WSW 4.6 mph - N/A   Clear
1:53 AM 57.0 °F 52.0 °F 83% 29.82 in 10.0 mi West 4.6 mph - N/A   Clear
2:53 AM 55.9 °F 52.0 °F 87% 29.83 in 10.0 mi West 5.8 mph - N/A   Clear
3:53 AM 54.0 °F 51.1 °F 90% 29.84 in 10.0 mi WSW 4.6 mph - N/A   Clear
4:53 AM 54.0 °F 51.1 °F 90% 29.85 in 10.0 mi West 4.6 mph - N/A   Clear
5:53 AM 53.1 °F 50.0 °F 89% 29.86 in 10.0 mi WSW 3.5 mph - N/A   Partly Cloudy
6:53 AM 55.0 °F 52.0 °F 89% 29.89 in 10.0 mi Calm Calm - N/A   Clear
7:53 AM 59.0 °F 52.0 °F 78% 29.91 in 10.0 mi WSW 3.5 mph - N/A   Clear
8:53 AM 63.0 °F 48.9 °F 60% 29.92 in 10.0 mi West 4.6 mph - N/A   Clear
9:53 AM 66.0 °F 46.9 °F 50% 29.92 in 10.0 mi WNW 6.9 mph - N/A   Partly Cloudy
10:53 AM 66.0 °F 46.0 °F 48% 29.92 in 10.0 mi West 11.5 mph 19.6 mph N/A   Scattered Clouds
11:53 AM 68.0 °F 48.0 °F 49% 29.91 in 10.0 mi WSW 11.5 mph 17.3 mph N/A   Mostly Cloudy
12:53 PM 66.9 °F 45.0 °F 45% 29.91 in 10.0 mi WNW 10.4 mph 17.3 mph N/A   Mostly Cloudy
1:53 PM 71.6 °F 46.4 °F 41% 29.90 in 10.0 mi West 10.4 mph 21.9 mph N/A   Mostly Cloudy
2:53 PM 71.6 °F 46.4 °F 41% 29.90 in 10.0 mi WNW 9.2 mph 16.1 mph N/A   Mostly Cloudy
3:53 PM 72.0 °F 46.9 °F 41% 29.90 in 10.0 mi West 9.2 mph - N/A   Scattered Clouds
4:53 PM 71.1 °F 46.9 °F 42% 29.91 in 10.0 mi Variable 6.9 mph - N/A   Mostly Cloudy
5:53 PM 70.0 °F 46.0 °F 42% 29.92 in 10.0 mi West 8.1 mph - N/A   Mostly Cloudy
6:53 PM 68.0 °F 50.0 °F 52% 29.94 in 10.0 mi SW 3.5 mph - N/A   Mostly Cloudy
7:53 PM 62.1 °F 51.1 °F 67% 29.96 in 10.0 mi West 3.5 mph - N/A   Scattered Clouds
8:53 PM 62.1 °F 50.0 °F 65% 29.99 in 10.0 mi WNW 5.8 mph - N/A   Partly Cloudy
9:53 PM 57.9 °F 50.0 °F 75% 30.01 in 10.0 mi West 4.6 mph - N/A   Partly Cloudy
10:53 PM 54.0 °F 52.0 °F 93% 30.02 in 10.0 mi Calm Calm - N/A   Partly Cloudy
11:53 PM 55.0 °F 52.0 °F 89% 30.02 in 10.0 mi Calm Calm - N/A   Scattered Clouds